User: anonymous   Login
Location: Colorado Springs
(38.8340°N, 104.8210°W)
Time: 15:32:55
(UTC-07:00)
Language:

N. Korean satellite - Orbit

View from above orbital plane
View from above orbital plane
View from above satellite
View from above satellite

Ground track
Ground track

The orbit data is extracted from the following two-line orbital elements,

1 39026U 12072A   17351.96699240 +.00001778 +00000-0 +70135-4 0  9997
2 39026 097.2158 003.5254 0038248 245.0374 114.6889 15.26201273277959
Epoch (UTC): 17 December 2017 23:12:28
Eccentricity: 0.0038248
inclination: 97.2158°
perigee height: 461 km
apogee height: 513 km
right ascension of ascending node: 3.5254°
argument of perigee: 245.0374°
revolutions per day: 15.26201273
mean anomaly at epoch: 114.6889°
orbit number at epoch: 27795

The dashed part of the orbit path shows where the satellite is in the earth's shadow,  

DLR